Location: Unspecified
(39.7500°N, 0.0000°E)
Time: 11:23:41
(UTC+00:00)

deb HAPS - Visible Passes

Search period start: 04 April 2026 00:00
Search period end: 14 April 2026 00:00
Orbit: 531 x 1278 km, 81.5° (Epoch: 29 March)

Date Brightness Start Highest point End Pass type
(mag) Time Alt. Az. Time Alt. Az. Time Alt. Az.
4 Apr ? 00:55:11 28° ENE 00:55:11 28° ENE 00:59:46 10° NNE visible
4 Apr ? 02:38:19 44° NW 02:38:19 44° NW 02:44:26 10° N visible
5 Apr ? 00:59:12 33° NE 00:59:12 33° NE 01:04:08 10° NNE visible
5 Apr ? 02:42:21 38° NW 02:42:21 38° NW 02:48:23 10° N visible
6 Apr ? 01:03:12 38° NE 01:03:12 38° NE 01:08:24 10° NNE visible
6 Apr ? 02:46:20 33° NW 02:46:20 33° NW 02:52:17 10° N visible
7 Apr ? 01:07:11 43° NE 01:07:11 43° NE 01:12:36 10° NNE visible
7 Apr ? 02:50:19 28° WNW 02:50:19 28° WNW 02:56:07 10° N visible
7 Apr ? 23:28:01 10° ENE 23:28:01 10° ENE 23:28:26 10° ENE visible
8 Apr ? 01:11:09 48° NNE 01:11:09 48° NNE 01:16:45 10° NNE visible
8 Apr ? 02:54:17 24° WNW 02:54:17 24° WNW 02:59:53 10° NNW visible
8 Apr ? 23:31:58 13° ENE 23:31:58 13° ENE 23:34:01 10° NE visible
9 Apr ? 01:15:06 52° NNE 01:15:06 52° NNE 01:20:51 10° N visible
9 Apr ? 02:58:14 20° WNW 02:58:14 20° WNW 03:03:33 10° NNW visible
9 Apr ? 23:35:54 17° ENE 23:35:54 17° ENE 23:38:53 10° NE visible
10 Apr ? 01:19:02 53° N 01:19:02 53° N 01:24:53 10° N visible
10 Apr ? 03:02:10 17° WNW 03:02:16 17° WNW 03:07:04 10° NNW visible
10 Apr ? 23:39:49 20° ENE 23:39:49 20° ENE 23:43:27 10° NE visible
11 Apr ? 01:22:57 52° NNW 01:22:57 52° NNW 01:28:53 10° N visible
11 Apr ? 03:06:05 14° WNW 03:06:33 14° WNW 03:10:22 10° NNW visible
11 Apr ? 23:43:43 24° ENE 23:43:43 24° ENE 23:47:52 10° NNE visible
12 Apr ? 01:26:51 49° NNW 01:26:51 49° NNW 01:32:50 10° N visible
12 Apr ? 03:09:59 11° WNW 03:10:51 11° WNW 03:13:11 10° NW visible
12 Apr ? 23:47:35 29° ENE 23:47:35 29° ENE 23:52:10 10° NNE visible
13 Apr ? 01:30:44 44° NW 01:30:44 44° NW 01:36:45 10° N visible
13 Apr ? 23:51:27 34° NE 23:51:27 34° NE 23:56:24 10° NNE visible
